Weather History for Harvey, ND

Change the Weather History Date:

Wednesday, January 16, 2013

  Actual Average (KRUG) Record (KRUG)
Temperature  
Mean Temperature 20 °F -  
Max Temperature 35 °F 17 °F 43 °F (1961)
Min Temperature 6 °F -4 °F -32 °F (1954)
Degree Days  
Heating Degree Days 44    
Moisture  
Dew Point 13 °F    
Average Humidity 85    
Maximum Humidity 100    
Minimum Humidity 73    
Precipitation  
Precipitation 0.54 in - - ()
Sea Level Pressure  
Sea Level Pressure 29.92 in    
Wind  
Wind Speed 13 mph (NE)    
Max Wind Speed 22 mph    
Max Gust Speed 28 mph    
Visibility 8 miles    
Events Snow    
Averages and records for this station are not official NWS values.
T = Trace of Precipitation, MM = Missing Value Source: NWS Daily Summary

Daily Weather History Graph

Daily Weather History Graph

Search for Another Location

Airport:

Trip Planner

Search our weather history database for the weather conditions in past years. The results will help you decide how hot, cold, wet, or windy it might be!

Date:

Astronomy

Jan. 16, 2013 Rise Set
Actual Time 8:22 AM CST 5:16 PM CST
Civil Twilight 7:48 AM CST 5:51 PM CST
Nautical Twilight 7:09 AM CST 6:29 PM CST
Astronomical Twilight 6:32 AM CST 7:06 PM CST
Moon 10:32 AM CST 11:40 PM CST
Length of Visible Light 10h 03m
Length of Day
8h 53m
Waxing Crescent, 28% of the Moon is Illuminated
Jan 16
Waxing Crescent
Jan 18
First Quarter
Jan 26
Full
Feb 3
Last Quarter
Feb 10
New

Hourly Weather History & Observations

Time (CST) Temp. Windchill Dew Point Humidity Pressure Visibility Wind Dir Wind Speed Gust Speed Precip Events Conditions
12:15 AM 35.6 °F 24.2 °F 32.0 °F 87% 29.59 in 10.0 mi WNW 21.9 mph 27.6 mph N/A   Mostly Cloudy
12:35 AM 35.6 °F 24.8 °F 32.0 °F 87% 29.58 in 10.0 mi WNW 19.6 mph 27.6 mph N/A   Overcast
12:55 AM 35.6 °F 26.2 °F 32.0 °F 87% 29.58 in 10.0 mi West 15.0 mph 20.7 mph N/A   Overcast
1:15 AM 35.6 °F 27.1 °F 32.0 °F 87% 29.60 in 10.0 mi WNW 12.7 mph 20.7 mph N/A   Overcast
1:35 AM 35.6 °F 26.2 °F 32.0 °F 87% 29.61 in 10.0 mi WNW 15.0 mph 20.7 mph N/A   Mostly Cloudy
1:55 AM 35.6 °F 26.6 °F 32.0 °F 87% 29.61 in 10.0 mi WNW 13.8 mph - N/A   Mostly Cloudy
2:15 AM 35.6 °F 26.2 °F 32.0 °F 87% 29.62 in 10.0 mi WNW 15.0 mph - N/A   Overcast
2:35 AM 35.6 °F 26.2 °F 32.0 °F 87% 29.63 in 10.0 mi WNW 15.0 mph 20.7 mph N/A   Overcast
2:55 AM 35.6 °F 25.9 °F 32.0 °F 87% 29.63 in 10.0 mi WNW 16.1 mph - N/A   Scattered Clouds
3:15 AM 35.6 °F 25.9 °F 32.0 °F 87% 29.63 in 10.0 mi WNW 16.1 mph - N/A   Clear
3:35 AM 35.6 °F 26.2 °F 32.0 °F 87% 29.64 in 10.0 mi WNW 15.0 mph - N/A   Partly Cloudy
3:55 AM 33.8 °F 23.9 °F 32.0 °F 93% 29.65 in 10.0 mi WNW 15.0 mph 21.9 mph N/A   Mostly Cloudy
4:15 AM 35.6 °F 27.1 °F 32.0 °F 87% 29.65 in 10.0 mi NW 12.7 mph - N/A   Overcast
4:35 AM 33.8 °F 24.8 °F 32.0 °F 93% 29.65 in 10.0 mi NW 12.7 mph - N/A   Overcast
4:55 AM 32.0 °F 24.8 °F 32.0 °F 100% 29.65 in 9.0 mi NNW 8.1 mph - N/A   Overcast
5:15 AM 32.0 °F 25.6 °F 32.0 °F 100% 29.64 in 5.0 mi NNW 6.9 mph - N/A Snow Light Snow
5:35 AM 30.2 °F 19.3 °F 30.2 °F 100% 29.65 in 2.5 mi ENE 15.0 mph - 0.03 in Snow Light Snow
5:55 AM 26.6 °F 13.8 °F 26.6 °F 100% 29.67 in 1.8 mi ENE 17.3 mph - 0.13 in Snow Light Snow
6:35 AM 23.0 °F 11.1 °F 21.2 °F 93% 29.68 in 1.8 mi ENE 12.7 mph - 0.10 in Snow Light Snow
6:55 AM 23.0 °F 12.4 °F 21.2 °F 93% 29.70 in 3.0 mi ENE 10.4 mph - 0.11 in Snow Light Snow
7:15 AM 21.2 °F 7.8 °F 19.4 °F 93% 29.71 in 1.5 mi ENE 15.0 mph - 0.02 in Snow Light Snow
7:35 AM 17.6 °F 2.7 °F 15.8 °F 93% 29.73 in 1.8 mi ENE 16.1 mph - 0.05 in Snow Light Snow
7:55 AM 15.8 °F 1.4 °F 14.0 °F 93% 29.75 in 3.0 mi ENE 13.8 mph - 0.07 in Snow Light Snow
8:15 AM 15.8 °F 3.4 °F 14.0 °F 93% 29.76 in 2.0 mi ENE 10.4 mph - 0.02 in Snow Light Snow
8:35 AM 15.8 °F 1.4 °F 12.2 °F 86% 29.79 in 5.0 mi ENE 13.8 mph - 0.02 in Snow Light Snow
8:55 AM 14.0 °F -0.8 °F 12.2 °F 93% 29.82 in 2.0 mi NE 13.8 mph - 0.04 in Snow Light Snow
9:15 AM 14.0 °F -0.2 °F 10.4 °F 86% 29.83 in 1.0 mi NE 12.7 mph - 0.03 in Snow Light Snow
9:35 AM 14.0 °F -2.0 °F 10.4 °F 86% 29.87 in 2.0 mi NE 16.1 mph - 0.06 in Snow Light Snow
9:55 AM 14.0 °F -0.2 °F 10.4 °F 86% 29.87 in 7.0 mi ENE 12.7 mph - 0.07 in Snow Light Snow
10:15 AM 14.0 °F -0.2 °F 10.4 °F 86% 29.90 in 4.0 mi NE 12.7 mph - 0.01 in Snow Light Snow
10:35 AM 14.0 °F 2.0 °F 8.6 °F 79% 29.91 in 8.0 mi NE 9.2 mph - 0.02 in Snow Light Snow
10:55 AM 14.0 °F 0.5 °F 8.6 °F 79% 29.93 in 8.0 mi NE 11.5 mph - 0.02 in Snow Light Snow
11:15 AM 14.0 °F 2.0 °F 8.6 °F 79% 29.94 in 1.2 mi NE 9.2 mph - 0.03 in Snow Light Snow
11:35 AM 14.0 °F 2.0 °F 10.4 °F 86% 29.96 in 4.0 mi NE 9.2 mph - 0.08 in Snow Light Snow
11:55 AM 14.0 °F -0.2 °F 8.6 °F 79% 29.97 in 4.0 mi NNE 12.7 mph - 0.09 in Snow Light Snow
12:15 PM 12.2 °F -3.1 °F 8.6 °F 85% 29.99 in 3.0 mi NE 13.8 mph - N/A Snow Light Snow
12:35 PM 10.4 °F -3.3 °F 8.6 °F 92% 29.99 in 10.0 mi NE 10.4 mph - 0.01 in Snow Light Snow
12:55 PM 10.4 °F -2.4 °F 6.8 °F 85% 29.99 in 10.0 mi NNE 9.2 mph - 0.01 in   Mostly Cloudy
1:15 PM 10.4 °F -4.8 °F 6.8 °F 85% 30.01 in 10.0 mi NNE 12.7 mph - N/A   Partly Cloudy
1:35 PM 10.4 °F -4.8 °F 5.0 °F 79% 30.02 in 10.0 mi North 12.7 mph - N/A   Mostly Cloudy
1:55 PM 10.4 °F -4.8 °F 5.0 °F 79% 30.03 in 10.0 mi NNE 12.7 mph - N/A   Overcast
2:15 PM 8.6 °F -6.3 °F 5.0 °F 85% 30.04 in 10.0 mi NNE 11.5 mph - N/A   Overcast
2:35 PM 8.6 °F -2.6 °F 5.0 °F 85% 30.06 in 10.0 mi NNE 6.9 mph - N/A Snow Light Snow
2:55 PM 8.6 °F -2.6 °F 3.2 °F 79% 30.07 in 10.0 mi NNE 6.9 mph - N/A Snow Light Snow
3:15 PM 8.6 °F -1.3 °F 3.2 °F 79% 30.07 in 10.0 mi NE 5.8 mph - N/A   Overcast
3:35 PM 8.6 °F 0.1 °F 3.2 °F 79% 30.09 in 10.0 mi ENE 4.6 mph - N/A   Overcast
3:55 PM 8.6 °F 2.0 °F 3.2 °F 79% 30.10 in 10.0 mi NE 3.5 mph - N/A Snow Light Snow
4:15 PM 6.8 °F -3.5 °F 3.2 °F 85% 30.12 in 10.0 mi NE 5.8 mph - N/A Snow Light Snow
4:35 PM 6.8 °F -2.0 °F 3.2 °F 85% 30.13 in 10.0 mi NE 4.6 mph - N/A Snow Light Snow
4:55 PM 6.8 °F -3.5 °F 3.2 °F 85% 30.15 in 8.0 mi NNE 5.8 mph - N/A Snow Light Snow
5:15 PM 6.8 °F - 1.4 °F 79% 30.14 in 10.0 mi Calm Calm - N/A Snow Light Snow
5:35 PM 6.8 °F - 1.4 °F 79% 30.14 in 10.0 mi Calm Calm - N/A   Overcast
5:55 PM 6.8 °F -0.1 °F 1.4 °F 79% 30.13 in 10.0 mi SE 3.5 mph - N/A   Overcast
6:15 PM 6.8 °F -2.0 °F 1.4 °F 79% 30.14 in 10.0 mi ESE 4.6 mph - N/A   Overcast
6:35 PM 6.8 °F - 1.4 °F 79% 30.14 in 10.0 mi Calm Calm - N/A   Overcast
6:55 PM 6.8 °F - 1.4 °F 79% 30.15 in 10.0 mi Calm Calm - N/A Snow Light Snow
7:15 PM 6.8 °F -2.0 °F 1.4 °F 79% 30.16 in 10.0 mi SSE 4.6 mph - N/A Snow Light Snow
7:35 PM 6.8 °F -2.0 °F 1.4 °F 79% 30.16 in 10.0 mi SSE 4.6 mph - N/A   Overcast
7:55 PM 6.8 °F -4.8 °F 1.4 °F 79% 30.16 in 10.0 mi South 6.9 mph - N/A Snow Light Snow
8:15 PM 8.6 °F -1.3 °F 1.4 °F 73% 30.16 in 10.0 mi SSE 5.8 mph - N/A   Overcast
8:35 PM 8.6 °F -1.3 °F 1.4 °F 73% 30.15 in 10.0 mi SE 5.8 mph - N/A Snow Light Snow
8:55 PM 8.6 °F -3.7 °F 3.2 °F 79% 30.14 in 10.0 mi South 8.1 mph - N/A   Overcast
9:15 PM 8.6 °F 0.1 °F 5.0 °F 85% 30.14 in 10.0 mi SSE 4.6 mph - N/A   Overcast
9:35 PM 10.4 °F 0.8 °F 5.0 °F 79% 30.15 in 10.0 mi ESE 5.8 mph - N/A   Overcast
9:55 PM 10.4 °F 0.8 °F 5.0 °F 79% 30.16 in 10.0 mi ESE 5.8 mph - N/A   Overcast
10:15 PM 10.4 °F 4.0 °F 6.8 °F 85% 30.17 in 10.0 mi ESE 3.5 mph - N/A   Overcast
10:35 PM 10.4 °F 4.0 °F 6.8 °F 85% 30.17 in 9.0 mi SSE 3.5 mph - N/A   Overcast
10:55 PM 10.4 °F 2.2 °F 6.8 °F 85% 30.16 in 10.0 mi South 4.6 mph - N/A   Overcast
11:15 PM 10.4 °F 4.0 °F 8.6 °F 92% 30.15 in 10.0 mi South 3.5 mph - N/A   Overcast
11:35 PM 12.2 °F 1.7 °F 10.4 °F 92% 30.15 in 10.0 mi SSW 6.9 mph - N/A   Overcast
11:55 PM 14.0 °F 3.9 °F 10.4 °F 86% 30.14 in 10.0 mi SW 6.9 mph - N/A   Overcast